Tracking 19720 objects as of 26-Jun-2019
HD Live streaming from Space Station
objects crossing your sky now

ITALSAT 1

Track ITALSAT 1 now!
ITALSAT 1 is classified as:


NORAD ID: 21055
Int'l Code: 1991-003A
Perigee: 35,804.1 km
Apogee: 35,948.4 km
Inclination: 14.9 °
Period: 1,440.3 minutes
Semi major axis: 42247 km
RCS: 3.4358 m2 (large)
Launch date: January 15, 1991
Source: Italy (IT)
Launch site: FRENCH GUIANA (FRGUI)
aabbcc
Your satellite tracking list
Your tracking list is empty




NASA's NSSDC Master Catalog

Two Line Element Set (TLE):
1 21055U 91003A   19175.87590146 -.00000217  00000-0  00000+0 0  9999
2 21055  14.9135  12.4188 0017081 352.7915  19.9509  0.99978157 91706
Source of the keplerian elements: AFSPC